Temp
51 51 51 51 52 53 52 42 30 50 50 33 33 26 39 46 44 46 42 40 36 32 31 28 27 27 32 42 36 26 31 27 23 31 44 43 44 43 42 29 30 37 32 32
51 51 51 51 51 52 42 37 36 49 47 21 23 36 40 44 41 40 38 35 37 36 29 24 30 33 42 42 35 29 31 27 21 31 38 41 40 45 48 46 41 34 29 32
50 50 50 51 51 52 45 38 26 35 39 38 33 32 35 35 45 41 40 36 36 31 29 33 29 32 41 41 38 39 36 28 23 20 26 32 34 39 42 44 33 35 35 37
50 50 50 50 51 52 47 36 30 36 22 31 34 36 36 34 33 41 38 33 33 29 25 28 29 35 37 40 41 38 32 23 28 31 32 34 33 34 36 34 35 33 34 34
50 50 50 50 50 52 43 31 32 38 34 38 34 35 32 35 35 36 31 29 32 30 26 29 27 32 32 31 35 32 33 25 28 29 34 34 27 30 32 32 31 33 33 32
49 50 49 50 50 50 40 43 44 36 37 33 31 33 35 36 36 39 42 35 31 31 34 37 40 39 37 32 28 28 28 27 26 26 32 34 24 24 28 29 30 31 28 32
49 49 49 49 50 49 42 42 41 32 28 32 33 38 38 36 37 34 40 39 35 39 45 44 42 39 39 35 32 33 29 29 28 26 28 14 25 33 31 29 30 31 33 34
49 49 49 49 49 50 44 44 40 32 25 34 36 36 35 37 37 36 37 41 44 45 40 31 28 25 29 33 36 33 34 29 25 21 21 25 27 28 27 27 27 32 32 35
48 48 48 49 49 50 45 43 44 38 28 31 40 33 35 29 30 32 37 45 45 43 33 28 22 20 25 23 29 38 36 34 27 24 16 12 22 29 35 35 25 32 33 34
48 48 48 48 49 50 44 42 44 40 28 36 39 32 31 35 32 27 34 35 36 40 30 23 22 22 29 21 21 22 25 24 21 22 20 22 28 32 41 23 22 32 34 34
47 48 48 48 49 49 45 42 45 40 31 37 43 43 35 35 32 28 32 31 35 30 26 24 21 22 25 25 26 22 22 21 19 22 17 14 32 33 25 28 33 34 34 35
47 47 48 48 49 49 49 39 48 48 36 38 45 45 46 44 41 33 34 34 35 27 25 26 25 23 25 27 21 32 22 26 22 23 22 31 32 31 32 33 33 34 35 36
47 47 48 48 48 49 47 41 43 43 34 37 38 39 49 52 48 47 32 35 40 36 36 27 26 25 29 23 24 28 31 35 27 27 29 31 32 35 35 36 35 37 39 41
47 47 47 48 48 49 49 40 43 41 37 29 35 53 47 54 51 50 46 43 44 40 37 30 26 23 31 26 30 28 32 33 29 29 32 35 35 36 37 38 40 40 42 42
47 47 47 48 48 49 46 44 43 44 36 29 33 45 51 53 50 49 49 45 40 35 31 26 31 31 29 31 31 28 32 28 25 25 34 32 33 38 40 39 39 41 41 41
47 47 47 47 48 48 40 33 41 43 41 32 27 43 45 49 50 48 46 44 40 36 28 27 33 38 31 24 22 33 37 40 38 33 39 39 40 42 43 41 43 43 42 43
46 47 47 47 48 43 34 32 38 45 40 32 29 32 44 48 47 42 41 43 39 38 32 29 31 33 32 24 23 35 39 41 41 43 42 37 40 38 43 43 43 44 44 44
46 47 47 47 47 43 38 40 45 42 35 35 27 29 34 45 35 33 40 35 36 35 33 34 31 33 31 23 37 41 43 44 43 44 45 42 43 44 44 45 43 42 41 42
47 47 47 43 39 33 37 48 46 41 37 28 31 27 23 41 37 37 36 36 26 38 28 30 32 29 23 36 39 41 42 42 44 45 45 44 43 44 44 44 43 40 40 42
47 40 34 30 34 48 47 37 32 31 30 32 29 35 27 36 33 32 31 31 27 23 29 34 26 24 40 43 44 44 45 46 46 39 38 40 41 42 43 43 43 43 42 41
35 32 31 41 48 38 32 27 28 27 27 31 34 34 31 39 28 27 31 25 28 24 28 27 23 25 33 45 45 46 47 46 46 46 45 45 44 43 42 43 43 43 43 41
36 39 44 41 33 29 24 23 29 29 29 34 32 34 36 35 38 28 31 28 30 27 35 25 22 28 41 44 45 47 47 46 47 48 46 46 48 46 43 43 42 42 43 42
40 34 32 30 27 18 24 14 26 25 35 36 35 30 34 35 36 29 28 29 25 32 21 23 28 36 44 44 46 46 47 46 45 46 47 46 45 46 44 43 44 42 42 41
32 27 18 25 21 26 29 30 32 37 38 37 36 32 30 32 29 29 27 31 31 22 20 26 27 39 43 44 45 45 43 45 44 44 45 44 44 43 43 41 41 35 38 38
31 32 21 28 32 35 37 39 39 40 40 38 34 33 32 29 28 30 30 26 22 27 24 30 35 41 43 43 45 43 43 43 43 44 44 43 43 41 42 41 43 39 34 35
34 36 29 33 31 30 32 34 34 41 39 40 37 30 26 28 28 28 26 27 26 28 31 34 41 43 44 44 46 46 45 45 44 44 45 45 43 42 43 44 40 32 31 29
36 30 34 32 32 31 34 36 36 42 37 31 29 27 28 30 26 28 30 28 31 33 34 39 43 44 44 45 46 46 47 45 45 45 45 44 45 45 43 42 37 39 38 31
MSLP
1023.26 1022.64 1022.06 1021.28 1020.54 1019.42 1019.06 1019.71 1020.60 1018.99 1018.52 1019.15 1019.72 1020.31 1019.75 1019.06 1018.57 1018.22 1017.85 1017.88 1017.84 1017.98 1018.01 1017.84 1017.37 1016.54 1015.77 1015.24 1015.36 1015.22 1014.87 1013.99 1012.20 1009.76 1007.56 1007.07 1006.13 1005.58 1005.31 1005.67 1006.07 1006.31 1006.20 1005.10
1023.47 1022.86 1022.14 1021.35 1020.66 1020.50 1020.67 1021.17 1021.00 1019.31 1018.96 1020.30 1020.98 1020.63 1020.04 1019.37 1018.73 1018.27 1018.20 1018.36 1018.36 1018.35 1018.26 1018.01 1016.89 1016.04 1015.19 1015.08 1015.61 1016.08 1015.68 1014.65 1012.99 1009.36 1008.49 1008.03 1006.93 1006.26 1005.52 1005.65 1006.95 1007.89 1008.20 1006.26
1023.88 1023.21 1022.33 1021.51 1020.56 1019.93 1020.29 1021.25 1021.97 1021.64 1020.86 1021.09 1021.47 1021.24 1020.61 1019.73 1018.80 1018.36 1018.62 1018.60 1018.34 1018.28 1017.89 1017.35 1016.84 1016.10 1015.11 1015.23 1015.66 1016.02 1015.79 1015.25 1014.49 1013.20 1011.71 1010.27 1008.78 1007.71 1007.03 1006.81 1008.32 1008.68 1009.02 1008.16
1024.20 1023.59 1022.81 1021.89 1020.95 1019.98 1020.23 1021.99 1022.45 1022.22 1022.72 1022.27 1022.11 1021.79 1021.23 1020.34 1019.38 1018.90 1019.35 1018.85 1018.85 1018.76 1018.24 1017.45 1016.94 1016.14 1015.55 1015.44 1015.65 1015.98 1015.85 1015.45 1014.62 1013.52 1012.44 1011.09 1010.87 1010.83 1010.20 1010.80 1011.20 1011.01 1011.25 1010.53
1024.69 1024.00 1023.38 1022.59 1021.69 1020.73 1021.13 1022.41 1022.79 1022.76 1023.03 1023.03 1022.68 1022.42 1021.85 1020.91 1020.36 1019.85 1019.64 1019.46 1018.82 1018.43 1018.26 1017.90 1017.26 1016.82 1016.57 1016.62 1016.54 1016.43 1015.95 1015.43 1014.52 1013.29 1012.85 1012.00 1013.12 1013.79 1013.93 1013.47 1013.42 1013.12 1013.12 1012.48
1025.22 1024.69 1024.08 1023.54 1022.90 1022.07 1022.52 1022.78 1022.59 1023.18 1024.04 1023.75 1023.57 1023.05 1022.38 1021.63 1021.17 1020.27 1019.70 1019.35 1018.91 1017.91 1017.44 1017.11 1016.93 1017.11 1017.32 1017.65 1017.55 1016.88 1016.39 1015.75 1014.73 1013.93 1013.04 1011.81 1014.05 1017.26 1017.25 1017.13 1016.77 1015.97 1015.02 1014.64
1025.74 1025.40 1024.87 1024.41 1023.94 1023.78 1023.57 1023.68 1023.63 1024.38 1025.10 1024.63 1024.24 1023.54 1023.00 1022.17 1021.64 1020.93 1019.97 1018.95 1018.32 1017.48 1016.32 1016.50 1016.51 1016.71 1016.77 1017.21 1016.71 1016.79 1016.45 1016.00 1015.62 1015.03 1014.67 1017.15 1019.94 1019.13 1018.82 1018.41 1018.34 1017.60 1017.01 1014.95
1026.36 1025.99 1025.57 1025.17 1024.91 1024.31 1024.16 1024.37 1024.60 1024.87 1025.51 1025.36 1024.74 1024.30 1023.67 1022.67 1021.89 1021.18 1020.63 1019.38 1018.67 1016.98 1016.62 1016.96 1017.07 1017.02 1017.16 1017.12 1017.07 1016.78 1016.56 1016.52 1016.34 1016.61 1017.42 1019.52 1019.81 1020.27 1019.84 1018.97 1018.50 1018.40 1016.94 1015.84
1026.92 1026.54 1026.18 1025.73 1025.53 1024.93 1024.63 1025.02 1024.69 1025.13 1025.65 1026.01 1025.42 1024.88 1024.49 1023.96 1023.22 1022.02 1021.06 1019.62 1018.90 1018.14 1018.15 1018.63 1019.32 1019.45 1019.39 1019.38 1018.50 1017.56 1017.03 1016.11 1016.30 1017.82 1020.03 1022.76 1023.18 1020.86 1019.20 1018.81 1019.15 1019.87 1019.05 1017.68
1027.38 1027.05 1026.74 1026.42 1026.20 1025.69 1025.63 1025.47 1025.02 1025.21 1025.87 1025.83 1025.17 1025.15 1025.03 1024.49 1024.22 1023.69 1022.53 1021.63 1020.36 1020.16 1020.16 1020.46 1021.14 1021.72 1021.78 1021.37 1021.14 1020.66 1019.42 1019.28 1020.18 1020.66 1021.74 1023.96 1023.41 1021.57 1019.45 1020.93 1023.99 1022.43 1021.13 1020.08
1027.79 1027.46 1027.08 1026.91 1026.49 1026.13 1026.17 1025.81 1025.36 1025.79 1026.07 1025.77 1025.44 1025.19 1024.93 1024.70 1024.51 1024.80 1024.01 1022.72 1022.03 1022.11 1022.18 1022.67 1023.22 1023.44 1023.35 1023.19 1023.38 1022.54 1022.00 1022.09 1022.25 1022.56 1023.45 1025.36 1025.17 1023.40 1023.06 1025.37 1024.62 1023.54 1022.40 1021.54
1028.07 1027.91 1027.53 1027.40 1026.82 1026.47 1026.00 1026.33 1025.63 1025.42 1026.11 1025.80 1025.14 1024.84 1024.46 1024.29 1024.27 1024.46 1024.17 1024.38 1023.99 1023.72 1024.26 1024.33 1024.43 1024.81 1024.41 1024.25 1023.93 1023.86 1023.58 1024.68 1024.83 1025.12 1026.78 1027.07 1026.54 1026.02 1025.77 1025.17 1024.46 1023.73 1023.12 1022.41
1028.31 1028.23 1027.90 1027.86 1027.34 1027.15 1027.06 1026.76 1026.40 1026.07 1026.63 1026.17 1025.48 1024.88 1024.27 1023.71 1023.63 1023.71 1024.55 1024.33 1023.92 1024.00 1024.06 1024.69 1025.43 1025.91 1025.86 1025.42 1025.69 1025.33 1025.14 1025.29 1025.72 1026.17 1027.53 1027.18 1026.80 1026.43 1026.10 1025.43 1024.93 1024.24 1023.27 1022.49
1028.55 1028.48 1028.29 1028.10 1027.69 1027.45 1027.19 1027.06 1026.90 1026.78 1027.05 1027.10 1026.40 1025.03 1024.45 1023.75 1023.55 1023.43 1023.57 1024.23 1024.11 1024.32 1024.98 1026.05 1026.46 1026.72 1026.74 1027.01 1027.16 1026.26 1026.39 1025.88 1026.40 1026.94 1027.16 1027.01 1026.89 1026.59 1026.17 1025.86 1025.29 1024.33 1023.46 1022.72
1028.76 1028.67 1028.56 1028.30 1028.04 1027.77 1027.43 1027.28 1027.60 1027.35 1027.96 1028.13 1027.02 1025.67 1024.86 1024.29 1024.15 1024.10 1024.09 1024.42 1024.87 1025.43 1025.99 1026.71 1027.24 1027.19 1027.33 1027.51 1027.14 1027.17 1027.19 1027.05 1026.96 1027.46 1027.40 1027.26 1026.91 1026.28 1025.77 1025.26 1024.61 1024.17 1023.48 1022.88
1028.95 1028.81 1028.65 1028.39 1028.18 1028.00 1028.07 1028.40 1028.07 1027.97 1027.93 1028.19 1027.67 1026.21 1025.54 1025.06 1024.82 1024.85 1024.93 1025.06 1025.54 1026.07 1026.68 1027.15 1027.13 1026.51 1027.47 1028.30 1028.04 1028.20 1027.54 1027.19 1027.06 1027.17 1026.91 1026.66 1026.45 1026.12 1025.63 1025.31 1024.96 1024.61 1024.24 1023.75
1029.05 1028.91 1028.71 1028.46 1028.24 1027.95 1028.59 1028.94 1028.86 1028.35 1028.27 1028.50 1028.11 1027.07 1026.08 1025.55 1025.46 1025.57 1025.80 1025.81 1026.40 1026.70 1027.41 1027.87 1027.93 1027.70 1027.52 1027.98 1028.11 1027.83 1027.38 1027.02 1026.76 1026.53 1026.47 1026.64 1026.32 1026.16 1025.80 1025.57 1025.42 1025.30 1025.14 1024.74
1029.09 1028.99 1028.74 1028.55 1028.57 1028.96 1028.75 1028.79 1028.50 1028.49 1028.62 1028.71 1028.74 1027.67 1026.75 1025.91 1026.45 1026.98 1026.47 1027.13 1027.13 1027.49 1027.85 1028.13 1028.36 1027.93 1028.03 1028.46 1027.78 1027.30 1026.93 1026.73 1026.60 1026.40 1026.25 1026.31 1026.32 1026.18 1026.02 1025.80 1025.66 1025.59 1025.47 1025.40
1029.05 1028.98 1028.76 1028.62 1028.72 1029.21 1028.89 1028.59 1028.52 1028.55 1029.11 1029.05 1028.53 1027.96 1027.60 1026.68 1026.86 1027.14 1027.36 1027.52 1028.28 1027.79 1028.35 1028.39 1028.40 1028.55 1028.33 1027.93 1027.54 1027.13 1026.78 1026.61 1026.54 1026.44 1026.45 1026.39 1026.35 1026.32 1026.18 1026.05 1025.96 1025.98 1025.88 1025.70
1029.09 1029.30 1029.46 1029.42 1029.02 1028.61 1028.54 1028.88 1029.05 1029.32 1029.17 1028.85 1028.60 1027.42 1027.73 1027.55 1027.63 1028.15 1028.55 1028.23 1028.32 1028.44 1028.23 1027.98 1028.44 1028.45 1027.74 1027.22 1026.96 1026.78 1026.59 1026.47 1026.37 1026.51 1026.48 1026.47 1026.48 1026.41 1026.33 1026.23 1026.14 1026.11 1026.20 1026.09
1029.76 1029.95 1029.54 1028.58 1028.30 1028.65 1028.98 1029.58 1029.78 1029.49 1029.37 1028.54 1027.99 1027.63 1027.83 1027.64 1028.29 1028.73 1028.64 1028.84 1028.53 1028.63 1028.43 1028.23 1028.38 1028.30 1027.47 1026.80 1026.61 1026.43 1026.37 1026.34 1026.35 1026.35 1026.39 1026.41 1026.46 1026.45 1026.49 1026.39 1026.29 1026.31 1026.37 1026.39
1029.46 1029.12 1028.67 1028.72 1028.80 1029.26 1029.63 1029.40 1028.98 1028.73 1028.05 1027.52 1027.40 1027.53 1027.56 1027.98 1027.89 1028.75 1028.84 1028.82 1028.72 1028.55 1028.11 1028.49 1028.34 1027.66 1026.80 1026.41 1026.21 1026.14 1026.20 1026.26 1026.34 1026.35 1026.39 1026.42 1026.42 1026.40 1026.47 1026.57 1026.62 1026.68 1026.58 1026.72
1029.14 1029.38 1029.24 1029.30 1029.51 1029.64 1029.28 1028.75 1028.27 1027.69 1026.83 1026.71 1027.02 1027.68 1027.73 1028.01 1028.16 1028.97 1028.93 1028.96 1029.00 1028.44 1028.52 1028.42 1027.46 1026.45 1026.01 1025.83 1025.81 1025.92 1026.00 1026.14 1026.21 1026.28 1026.27 1026.29 1026.31 1026.28 1026.41 1026.57 1026.59 1026.66 1026.84 1027.21
1029.39 1029.63 1029.61 1029.33 1029.23 1028.57 1027.63 1026.88 1026.41 1025.84 1025.86 1026.34 1026.96 1027.77 1028.11 1028.21 1028.55 1028.76 1029.04 1028.85 1028.65 1028.64 1028.44 1027.66 1026.67 1025.99 1025.68 1025.61 1025.64 1025.88 1026.10 1026.12 1026.16 1026.24 1026.29 1026.38 1026.37 1026.32 1026.35 1026.48 1026.44 1026.81 1027.27 1027.57
1029.20 1029.04 1028.86 1028.26 1027.58 1026.90 1026.35 1025.83 1025.26 1024.99 1025.25 1026.16 1026.93 1027.63 1028.17 1028.59 1028.94 1028.89 1028.70 1028.59 1028.41 1027.91 1027.16 1026.52 1025.75 1025.44 1025.38 1025.46 1025.54 1025.70 1025.84 1025.92 1026.03 1026.11 1026.22 1026.33 1026.30 1026.32 1026.39 1026.22 1026.23 1026.79 1027.38 1027.76
1028.76 1028.37 1027.96 1027.24 1027.11 1026.76 1026.16 1025.86 1025.56 1025.00 1025.29 1025.88 1026.83 1027.73 1028.48 1028.57 1028.69 1028.84 1028.45 1028.08 1027.35 1026.51 1025.86 1025.48 1025.01 1024.97 1025.07 1025.20 1025.18 1025.28 1025.37 1025.57 1025.73 1025.84 1025.92 1026.05 1026.19 1026.24 1026.23 1026.00 1026.42 1026.86 1027.18 1027.31
1028.16 1027.54 1026.98 1026.97 1026.81 1026.44 1026.11 1025.74 1025.60 1025.04 1025.56 1026.47 1027.03 1027.75 1027.92 1028.14 1028.21 1027.98 1027.28 1026.55 1025.98 1025.59 1025.21 1024.71 1024.53 1024.55 1024.61 1024.67 1024.83 1025.01 1025.16 1025.28 1025.47 1025.63 1025.71 1025.82 1025.83 1025.91 1026.03 1026.18 1026.90 1027.13 1027.54 1027.69
Wind_Speed
20 22 22 21 20 23 7 4 4 8 4 6 4 4 8 8 13 14 8 9 11 13 14 11 13 12 5 3 4 6 3 4 7 11 13 10 9 6 7 5 2 9 4 5
21 22 22 21 19 12 1 3 2 7 6 4 4 8 9 9 13 12 10 9 12 10 7 7 9 7 11 4 4 4 6 4 7 5 5 5 4 8 8 4 4 5 5 5
21 23 23 24 24 20 4 4 4 6 6 4 6 8 7 12 11 9 11 10 9 8 7 6 6 10 5 7 6 3 4 3 2 2 7 9 5 18 16 7 1 6 7 11
21 23 24 26 27 25 6 4 3 3 4 8 7 9 11 15 17 6 16 5 15 4 4 6 6 9 9 7 4 6 2 4 7 10 7 23 26 21 23 15 13 6 6 10
21 24 24 26 28 22 6 4 3 6 4 8 8 10 10 16 16 9 10 11 18 3 4 5 10 10 6 4 9 9 4 3 5 14 15 28 26 27 27 14 15 13 12 9
20 23 24 24 26 16 4 4 5 6 8 6 7 12 15 15 15 9 14 5 7 10 5 9 3 5 5 7 6 3 3 3 5 2 8 6 18 25 13 15 14 9 12 9
19 21 23 22 23 16 1 2 1 5 5 7 9 15 17 16 19 11 16 12 14 14 7 6 3 6 8 8 7 7 4 3 2 1 3 12 7 16 15 8 15 17 6 16
18 19 21 21 20 22 4 4 4 3 4 8 12 17 17 14 17 10 17 16 11 18 4 4 6 4 2 7 13 8 4 2 5 5 11 3 17 20 12 9 15 24 23 22
16 18 20 21 20 22 3 3 3 3 5 8 10 7 12 8 12 13 13 21 10 19 5 5 10 9 8 12 14 15 17 15 8 6 10 9 15 24 22 5 9 26 22 21
15 17 18 20 19 20 5 1 3 1 4 4 9 10 7 6 7 3 6 12 14 13 8 7 6 7 9 9 13 11 8 7 16 12 7 5 22 25 12 11 9 18 16 17
14 15 17 18 19 20 8 1 5 4 1 3 8 6 7 6 4 4 9 6 14 6 10 7 4 5 7 4 13 8 11 5 6 7 7 8 20 11 11 5 8 10 13 14
12 14 16 17 18 20 16 3 4 1 3 3 3 3 3 4 1 1 6 2 5 2 5 5 4 4 5 10 7 13 9 10 8 8 5 3 7 9 8 9 6 7 10 11
11 12 15 15 16 16 11 2 4 4 3 5 5 6 7 7 1 3 4 5 5 7 3 1 1 8 7 8 10 5 9 9 8 2 11 9 9 8 10 11 13 12 9 10
9 11 13 13 15 15 13 3 4 3 1 4 4 3 5 8 7 5 3 3 7 4 4 4 4 4 5 7 7 10 7 4 5 10 11 2 10 10 9 10 8 12 14 16
8 10 11 12 12 14 8 2 4 4 4 2 4 4 6 6 8 8 8 7 4 3 6 4 2 3 5 5 3 10 5 6 5 5 4 2 5 5 5 7 10 15 16 16
6 8 11 11 12 13 4 6 3 5 3 4 3 4 6 5 7 7 7 5 4 4 3 2 5 6 5 3 3 4 5 5 3 3 1 2 3 6 9 9 13 11 13 16
4 7 9 10 13 5 4 4 4 7 2 3 4 2 3 4 4 5 4 5 2 3 2 4 3 3 5 3 3 4 5 4 2 1 4 4 5 5 6 8 8 10 11 11
4 7 8 9 8 1 1 1 3 4 2 2 2 3 5 3 2 3 3 4 4 5 1 4 3 5 3 5 5 6 5 6 5 6 6 5 3 4 6 6 6 9 10 10
5 6 8 4 4 3 1 4 5 2 2 1 0 3 3 4 2 2 4 2 3 2 2 1 5 3 2 3 4 4 3 4 4 6 7 7 6 6 6 6 7 6 7 9
5 7 4 3 3 1 5 6 5 5 3 1 2 1 0 4 2 2 3 2 2 1 5 2 4 3 3 4 5 3 4 5 5 3 3 5 5 4 6 5 5 5 3 5
3 2 1 1 1 1 3 2 2 2 2 2 4 2 3 3 4 1 2 3 2 2 5 4 2 1 4 5 6 3 1 3 6 6 5 6 5 4 5 5 5 6 5 5
6 2 3 3 3 2 4 2 2 2 4 3 5 3 3 1 2 3 3 0 3 2 1 4 3 5 7 7 6 6 4 3 4 5 5 6 6 5 6 6 6 5 6 5
3 3 2 2 1 3 4 3 3 2 3 3 3 1 2 3 2 1 2 2 3 1 4 3 5 5 7 6 5 5 5 3 2 3 4 6 4 5 4 5 4 3 4 6
2 2 1 4 3 5 5 4 5 6 5 5 5 3 3 1 3 2 2 4 3 2 1 5 4 6 6 6 5 6 2 4 3 3 4 6 5 5 5 6 5 3 4 4
2 2 4 6 6 4 3 3 2 3 6 5 4 3 4 1 3 2 1 0 2 4 5 3 3 6 6 6 5 7 5 2 3 1 2 5 6 3 4 5 3 7 6 5
3 5 3 4 2 4 2 2 3 2 3 3 3 3 3 2 3 3 5 3 5 5 4 4 4 6 6 5 4 5 5 2 1 2 2 3 3 3 6 7 5 5 4 4
4 4 4 2 2 4 3 2 3 2 4 3 3 3 6 2 1 3 5 5 4 2 1 2 4 4 4 5 5 3 3 2 1 1 2 2 3 5 6 2 4 5 4 1
Wind_Direction
12 7 4 1 2 345 54 48 51 278 41 31 17 15 5 339 358 347 330 313 313 315 331 313 312 290 253 168 41 358 15 314 279 260 277 292 292 273 180 144 152 248 281 295
16 9 6 3 3 24 11 95 329 306 69 65 359 337 352 348 356 343 357 317 326 317 290 304 290 312 301 69 76 27 326 320 309 314 112 315 7 253 207 183 139 242 294 280
18 11 9 5 0 354 113 80 26 327 15 12 46 351 350 351 349 333 1 308 330 328 313 318 308 310 325 91 123 130 339 293 296 299 293 253 346 34 41 42 30 274 343 32
21 16 13 10 2 349 80 37 295 164 338 350 29 2 354 352 358 29 356 315 3 6 302 328 1 347 341 3 54 354 83 261 305 311 303 57 54 48 57 60 16 60 32 16
23 20 15 14 8 357 59 97 56 342 27 15 16 357 351 7 354 355 0 358 335 345 21 338 317 337 357 353 338 331 339 309 323 106 102 71 58 33 39 29 13 35 356 46
29 23 20 16 15 4 49 338 337 86 4 2 19 9 359 9 6 337 15 348 314 325 311 301 293 318 304 299 312 291 288 321 336 69 36 359 44 20 3 41 25 354 17 321
33 27 24 18 12 16 27 315 27 63 23 17 19 12 5 3 356 16 356 0 1 313 244 258 163 239 286 305 288 207 293 300 212 349 6 54 333 11 337 332 24 18 349 5
35 29 26 22 12 9 49 354 33 50 40 18 16 9 5 354 354 354 4 357 333 336 10 345 334 331 330 27 46 25 254 252 53 59 62 82 24 340 326 333 23 3 3 11
36 29 24 22 12 13 39 31 349 28 101 11 14 350 5 6 344 352 352 353 344 5 31 15 31 41 352 8 356 357 38 26 52 36 70 26 327 331 330 326 14 359 358 12
39 32 25 21 13 14 359 344 357 60 95 356 30 24 347 3 350 280 338 342 351 7 5 29 35 39 349 21 24 354 2 12 42 35 80 82 348 340 333 52 332 338 1 12
41 33 25 17 12 11 10 266 49 80 32 9 65 24 8 360 24 9 294 353 7 359 19 22 358 26 12 54 33 355 17 28 10 24 56 27 344 346 54 327 343 353 8 10
43 34 27 12 13 4 4 28 337 281 105 213 141 107 12 340 50 157 317 85 324 261 36 1 26 15 3 16 59 9 50 51 57 40 63 302 336 30 10 360 339 357 3 3
41 31 28 8 11 358 1 355 340 27 19 344 45 34 324 343 240 168 84 334 358 358 176 174 38 69 10 34 27 32 19 27 49 85 53 40 23 16 28 18 18 7 11 20
39 26 21 8 4 351 352 40 337 70 321 103 342 39 356 344 360 9 153 199 18 37 60 42 44 56 15 44 50 57 18 6 51 63 28 6 28 21 12 25 28 17 22 29
36 20 10 7 2 345 329 75 16 11 106 189 290 354 344 2 2 25 27 23 41 44 40 54 59 113 66 32 33 46 0 25 41 61 344 59 300 326 354 30 13 30 19 24
32 12 360 360 349 335 39 24 16 6 16 81 19 244 8 10 21 17 32 13 24 44 74 14 16 31 95 60 45 56 41 57 102 140 116 7 41 29 13 26 29 30 29 22
15 3 350 354 351 24 94 164 257 330 326 60 342 43 319 5 46 352 12 21 36 65 29 57 81 26 69 76 91 165 129 116 84 45 101 48 40 36 28 22 26 36 27 22
349 348 342 333 329 26 53 327 337 352 57 87 64 280 32 8 323 6 7 8 23 352 148 24 54 354 54 51 49 61 94 87 57 42 59 78 93 53 37 30 29 33 31 22
338 329 332 5 19 33 276 305 312 261 152 157 88 146 231 342 291 133 357 79 32 271 46 3 73 338 33 115 80 71 50 52 104 59 49 40 58 39 15 31 17 45 25 26
344 38 41 13 243 246 330 0 19 17 322 327 221 356 215 77 349 2 43 357 214 112 246 87 99 244 166 139 140 95 19 21 51 68 45 43 9 51 21 17 26 32 47 41
45 62 173 251 186 40 31 11 73 273 342 225 243 120 128 319 89 220 143 236 280 57 267 107 286 186 230 183 138 124 62 17 8 8 38 47 4 31 12 353 26 31 33 49
192 224 274 45 20 22 62 264 281 212 228 193 142 212 144 303 104 84 334 316 17 288 250 69 304 232 197 194 174 176 127 52 8 350 13 6 348 12 25 16 17 19 9 60
32 33 24 75 281 46 173 203 249 254 171 165 111 33 141 11 58 41 73 57 255 346 43 237 223 196 169 185 158 153 158 189 208 312 346 347 4 35 12 330 310 350 16 71
155 135 290 177 209 240 205 208 194 220 125 132 114 100 124 152 47 162 120 245 50 340 272 237 225 186 158 122 114 89 338 298 312 357 12 346 328 295 302 292 286 143 108 94
229 201 237 215 232 252 248 268 39 5 130 115 76 73 115 235 83 258 226 78 265 226 231 202 170 151 147 149 167 184 205 236 280 316 355 314 308 320 316 316 331 139 119 123
250 238 269 276 5 282 302 5 329 328 113 80 66 105 64 227 181 182 206 211 215 242 195 194 141 148 159 164 171 198 206 162 265 270 251 297 340 330 296 293 125 123 141 142
235 246 223 261 291 209 237 179 251 268 96 132 107 164 205 188 183 232 194 208 216 177 170 147 151 151 172 192 203 194 159 168 235 303 315 309 308 303 311 22 167 166 167 199